Location: Black Swamp Observatory
(41.3920°N, 84.1250°W)
Time: 04:20:53
(UTC-04:00)

Courier 1B Rocket - Pass Details

Date: 24 January 2022
Orbit: 920 x 1202 km, 28.2° (Epoch: 28 May)

Event Time Altitude Azimuth Distance (km) Brightness Sun altitude
Exits shadow 04:45:10 22° 157° (SSE) 2,008 6.7 -35.5°
Drops below altitude 10° 04:48:20 10° 131° (SE) 2,699 7.8 -34.9°
Sets 04:51:20 0° 119° (ESE) 3,610 8.7 -34.3°
